Terminal Aerodrome Forecast
Issued by NWS Twin Cities, MN

Home | Current Version | Previous Version | Graphics & Text | Print | Product List | Glossary On
Versions: 1 2 3 4 5 6 7 8 9 10 11 12 13 14 15 16
000
FTUS43 KMPX 271507 AAA
TAFSTC
TAF AMD
KSTC 271507Z 2715/2812 13008KT P6SM BKN012
     FM271700 14011G16KT P6SM SCT050
     FM280200 15008KT P6SM BKN050
     FM280800 14012G18KT P6SM VCTS BKN050CB
      TEMPO 2809/2812 5SM -TSRA BKN040CB=

USA.gov is the U.S. government's official web portal to all federal, state and local government web resources and services.